Regional Weather Roundup
Issued by NWS

Home | Current Version | Previous Version | Graphics & Text | Print | Product List | Glossary On
Versions: 1 2 3 4 5 6 7 8 9 10 11 12 13 14 15 16 17 18 19 20 21 22 23 24 25 26 27 28 29 30 31 32 33 34 35 36 37 38 39 40 41 42 43 44 45 46 47 48 49 50
000
ASUS43 KTOP 231508
RWRKS

WEATHER ROUNDUP FOR KANSAS
NATIONAL WEATHER SERVICE GOODLAND KS
1000 AM CDT SUN JUL 23 2017

NOTE:  "FAIR" INDICATES FEW OR NO CLOUDS BELOW 12,000 FEET WITH NO
SIGNIFICANT WEATHER AND/OR OBSTRUCTIONS TO VISIBILITY.

KSZ001>006-013>018-027>032-041>047-231600-
NORTHWEST KANSAS

CITY           SKY/WX    TMP DP  RH WIND       PRES   REMARKS
GOODLAND       CLOUDY    76  62  62 NW7       30.13R
HAYS           SUNNY     83  65  54 N6        30.02F
HILL CITY      FOG       73  73 100 N5        30.06R VSB 1/2
RUSSELL        SUNNY     82  67  60 NW6       30.01S
$$

KSZ061>065-074>080-084>089-231600-
SOUTHWEST KANSAS

CITY           SKY/WX    TMP DP  RH WIND       PRES   REMARKS
DODGE CITY     CLOUDY    78  66  66 NE7       30.06R
ELKHART          N/A     71  55  56 NE10        N/A
GARDEN CITY    MOSUNNY   76  64  66 E10       30.08R
LIBERAL        CLOUDY    75  67  76 NE8       30.08R
PRATT          CLOUDY    75  66  73 E3        30.02R
$$

KSZ066>073-081>083-090>101-231600-
SOUTHEAST KANSAS

CITY           SKY/WX    TMP DP  RH WIND       PRES   REMARKS
CHANUTE        CLOUDY    73  70  90 VRB5      29.96R
COFFEYVILLE    CLOUDY    76  69  79 NE5       29.95R
HUTCHINSON     SUNNY     80  69  69 N7        29.98F
MEDICINE LODGE   N/A     74  69  85 VRB3      29.96F
NEWTON           N/A     78  70  76 N9        29.99S
PARSONS        CLOUDY    74  70  87 CALM      29.97R
WICHITA INTL   MOSUNNY   79  72  79 N8        29.97S
WICHITA JABRA  MOSUNNY   79  70  74 MISG      29.97F
WICHITA MCCONL MOSUNNY   80  69  70 NE8       29.98R
WINFIELD       MOSUNNY   80  67  64 E5        29.97R
$$

KSZ007>012-019>026-033>040-048>060-102>105-231600-
NORTHEAST KANSAS

CITY           SKY/WX    TMP DP  RH WIND       PRES   REMARKS
CONCORDIA      SUNNY     81  70  69 N7        29.99S
EMPORIA        MOSUNNY   79  68  69 N10       29.96S
LAWRENCE       MOSUNNY   79  72  79 W3        29.93F
MANHATTAN      SUNNY     82  68  62 VRB3      29.96F
MARYSVILLE     SUNNY     81  70  69 CALM      29.98S
OLATHE IND     CLOUDY    78  69  73 W8        29.94F
OLATHE EXE     PTSUNNY   77  69  76 W9        29.94F
SALINA         SUNNY     82  69  64 N7        29.98F
TOPEKA BILLARD SUNNY     79  73  82 W7        29.94S
TOPEKA FORBES  SUNNY     80  72  76 W5        29.94F
$$




USA.gov is the U.S. government's official web portal to all federal, state and local government web resources and services.